1516201200.9,12120,9.25,71188.0,-13.29,-15.15,-15.29,0,*66
1516201202.18,12121,9.25,71188.0,-13.29,-15.21,-15.35,0,*6D
1516201203.43,12122,9.25,71194.0,-13.29,-15.15,-15.29,0,*64
1516201204.73,12123,9.31,71194.8,-13.33,-15.35,-15.39,0,*6D
1516201206.01,12124,9.25,71186.5,-13.29,-15.35,-15.49,0,*66
1516201207.28,12125,9.31,71188.0,-13.29,-15.35,-15.49,0,*67
1516201208.55,12126,9.25,71190.0,-13.29,-15.29,-15.43,0,*63
1516201209.84,12127,9.25,71184.8,-13.33,-15.35,-15.35,0,*65
1516201211.11,12128,9.25,71178.3,-13.33,-15.21,-15.25,0,*6E
1516201212.38,12129,9.25,71160.0,-13.29,-15.15,-15.35,0,*62
1516201213.65,12130,9.25,71160.0,-13.33,-15.21,-15.25,0,*67
1516201214.91,12131,9.25,71164.5,-13.29,-15.01,-15.11,0,*68
1516201216.17,12132,9.25,71172.3,-13.29,-15.01,-15.15,0,*6F
1516201217.43,12133,9.25,71164.3,-13.29,-15.11,-15.57,0,*69
1516201218.68,12134,9.25,71182.8,-13.29,-15.15,-15.75,0,*6A
1516201219.97,12135,9.31,71190.8,-13.29,-15.35,-16.09,0,*61
1516201221.26,12136,9.31,71178.5,-13.29,-15.89,-16.65,0,*6F
1516201222.51,12137,9.25,71174.8,-13.33,-16.03,-16.83,0,*6C
1516201223.8,12138,9.25,71172.5,-13.29,-16.31,-17.11,0,*63
1516201225.09,12139,9.25,71176.0,-13.33,-16.65,-17.41,0,*6D
1516201226.37,12140,9.31,71178.5,-13.33,-16.79,-17.59,0,*67
1516201227.66,12141,9.25,71176.5,-13.29,-17.21,-17.79,0,*63
1516201228.9,12142,9.25,71180.8,-13.33,-17.31,-17.83,0,*6F
1516201230.17,12143,9.25,71188.0,-13.29,-17.55,-17.83,0,*67
1516201231.44,12144,9.25,71186.0,-13.29,-17.69,-18.01,0,*6A
1516201232.7,12145,9.31,71190.3,-13.29,-17.97,-18.25,0,*6C
1516201233.97,12146,9.25,71188.8,-13.33,-18.21,-18.31,0,*63
1516201235.21,12147,9.31,71188.5,-13.29,-18.17,-18.25,0,*69
1516201236.49,12148,9.25,71188.5,-13.29,-18.55,-18.89,0,*66
1516201237.73,12149,9.25,71190.5,-13.29,-19.03,-19.17,0,*63
1516201239.02,12150,9.25,71184.8,-13.29,-19.31,-19.23,0,*6D
1516201240.27,12151,9.25,71180.8,-13.29,-19.51,-19.47,0,*68
1516201241.54,12152,9.25,71184.5,-13.33,-19.37,-19.81,0,*6A
1516201242.84,12153,9.25,71184.8,-13.33,-19.65,-20.49,0,*62
1516201244.13,12154,9.25,71180.5,-13.33,-20.35,-21.27,0,*63
1516201245.42,12155,9.31,71192.5,-13.33,-20.79,-21.57,0,*6D
1516201246.66,12156,9.31,71194.3,-13.33,-21.43,-22.53,0,*61
1516201247.93,12157,9.25,71194.8,-13.33,-22.63,-23.19,0,*6E
1516201249.18,12158,9.31,71196.0,-13.33,-23.75,-23.75,0,*6D
1516201250.42,12159,9.31,71192.3,-13.33,-25.23,-23.79,0,*65
1516201251.65,12160,9.31,71196.0,-13.33,-24.93,-22.93,0,*60
1516201252.9,12161,9.25,71194.3,-13.35,-24.25,-22.37,0,*64
1516201254.14,12162,9.31,71194.8,-13.35,-23.79,-22.21,0,*6E
1516201255.44,12163,9.25,71198.8,-13.33,-24.11,-22.77,0,*63
1516201256.68,12164,9.31,71202.3,-13.35,-25.13,-23.33,0,*60
1516201257.92,12165,9.25,71202.3,-13.37,-26.07,-22.67,0,*65
1516201259.14,12166,9.25,71206.3,-13.35,-25.23,-21.77,0,*63
1516201260.43,12167,9.25,71204.0,-13.37,-24.21,-20.83,0,*69
1516201261.68,12168,9.25,71182.8,-13.37,-23.79,-20.05,0,*62
1516201262.91,12169,9.31,71178.8,-13.37,-22.41,-19.03,0,*65
1516201264.15,12170,9.31,71188.3,-13.37,-21.17,-18.69,0,*60
1516201265.43,12171,9.25,71188.5,-13.37,-20.35,-18.35,0,*69
1516201266.67,12172,9.25,71184.8,-13.37,-19.91,-18.25,0,*6F
1516201267.96,12173,9.25,71178.0,-13.37,-19.61,-17.93,0,*63
1516201269.26,12174,9.25,71180.0,-13.41,-19.23,-17.63,0,*6C
1516201270.52,12175,9.25,71184.3,-13.37,-18.69,-17.17,0,*60
1516201271.76,12176,9.25,71184.8,-13.37,-18.49,-16.89,0,*67
1516201273.05,12177,9.25,71186.3,-13.37,-18.01,-16.69,0,*64
1516201274.31,12178,9.25,71188.8,-13.37,-17.79,-16.55,0,*64
1516201275.58,12179,9.25,71196.3,-13.41,-17.55,-16.37,0,*6E
1516201276.88,12180,9.31,71198.3,-13.37,-17.21,-16.09,0,*67
1516201278.17,12181,9.25,71194.3,-13.37,-17.21,-16.09,0,*66
1516201279.42,12182,9.25,71190.5,-13.37,-16.89,-15.95,0,*60
1516201280.66,12183,9.25,71190.8,-13.37,-16.89,-15.99,0,*6D
1516201281.9,12184,9.31,71192.8,-13.37,-16.89,-15.99,0,*6A
1516201283.13,12185,9.25,71192.8,-13.37,-16.89,-15.99,0,*6B
1516201284.38,12186,9.31,71194.3,-13.37,-16.89,-15.95,0,*64
1516201285.67,12187,9.25,71190.0,-13.37,-16.69,-15.81,0,*6E
1516201286.91,12188,9.25,71192.3,-13.37,-16.45,-15.67,0,*67
1516201288.18,12189,9.25,71188.8,-13.37,-16.41,-15.57,0,*61
1516201289.48,12190,9.31,71196.8,-13.37,-16.27,-15.39,0,*61
1516201290.75,12191,9.25,71194.0,-13.37,-16.31,-15.53,0,*6B
1516201292.04,12192,9.31,71200.3,-13.37,-16.17,-15.43,0,*6D
1516201293.34,12193,9.31,71196.3,-13.37,-16.27,-15.39,0,*62
1516201294.64,12194,9.25,71200.8,-13.37,-16.17,-15.39,0,*66
1516201295.94,12195,9.31,71206.0,-13.37,-16.17,-15.39,0,*67
1516201297.24,12196,9.25,71202.0,-13.37,-16.13,-15.39,0,*60
1516201298.48,12197,9.25,71200.3,-13.37,-15.99,-15.29,0,*61
1516201299.72,12198,9.25,71202.0,-13.37,-15.99,-15.29,0,*6E
1516201300.98,12199,9.25,71200.8,-13.37,-15.99,-15.21,0,*67
1516201302.25,12200,9.25,71200.8,-13.37,-15.85,-15.11,0,*6A
1516201303.51,12201,9.31,71204.0,-13.37,-15.67,-15.21,0,*64
1516201304.78,12202,9.25,71198.8,-13.37,-15.67,-15.21,0,*67
1516201306.05,12203,9.25,71196.0,-13.41,-15.57,-15.15,0,*63
1516201307.33,12204,9.31,71204.8,-13.37,-15.57,-15.21,0,*62
1516201308.58,12205,9.25,71202.3,-13.41,-15.49,-15.15,0,*6A
1516201309.87,12206,9.25,71202.3,-13.37,-15.43,-15.21,0,*65
1516201311.16,12207,9.25,71202.0,-13.37,-15.39,-15.21,0,*69
1516201312.42,12208,9.25,71198.3,-13.37,-15.21,-15.11,0,*6C
1516201313.68,12209,9.31,71200.0,-13.37,-15.11,-14.93,0,*65
1516201314.94,12210,9.25,71200.8,-13.37,-15.11,-14.83,0,*6C
1516201316.21,12211,9.25,71200.0,-13.37,-15.07,-14.83,0,*6A
1516201317.47,12212,9.25,71202.0,-13.41,-15.01,-14.89,0,*64
1516201318.73,12213,9.25,71206.0,-13.41,-15.01,-14.89,0,*65
1516201319.97,12214,9.25,71200.5,-13.37,-15.07,-15.07,0,*62
1516201321.21,12215,9.25,71206.0,-13.37,-15.11,-15.07,0,*64
1516201322.46,12216,9.25,71210.3,-13.37,-15.21,-15.11,0,*63
1516201323.71,12217,9.31,71200.0,-13.41,-15.15,-15.15,0,*60
1516201324.96,12218,9.25,71194.5,-13.41,-15.15,-15.15,0,*6F
1516201326.21,12219,9.25,71194.0,-13.41,-15.25,-15.25,0,*6E
1516201327.46,12220,9.31,71190.3,-13.41,-15.29,-15.25,0,*68
1516201328.71,12221,9.25,71186.8,-13.41,-15.15,-15.15,0,*65
1516201329.99,12222,9.31,71194.0,-13.37,-15.21,-15.21,0,*67
1516201331.25,12223,9.25,71194.0,-13.37,-15.21,-15.11,0,*65
1516201332.51,12224,9.25,71196.0,-13.41,-15.15,-15.25,0,*63
1516201333.76,12225,9.25,71194.0,-13.41,-15.15,-15.25,0,*62
1516201335.01,12226,9.31,71190.5,-13.41,-15.15,-15.25,0,*61
1516201336.28,12227,9.31,71188.3,-13.41,-15.15,-15.35,0,*61
1516201337.55,12228,9.25,71182.5,-13.41,-15.29,-15.35,0,*61
1516201338.83,12229,9.25,71188.3,-13.41,-15.35,-15.49,0,*66
1516201340.07,12230,9.25,71188.5,-13.43,-15.35,-15.53,0,*67
1516201341.35,12231,9.31,71194.3,-13.45,-15.35,-15.49,0,*6B
1516201342.59,12232,9.31,71196.5,-13.43,-15.35,-15.53,0,*65
1516201343.83,12233,9.25,71196.0,-13.43,-15.39,-15.63,0,*6B
1516201345.1,12234,9.31,71192.8,-13.41,-15.49,-15.57,0,*6E
1516201346.34,12235,9.31,71196.0,-13.45,-15.67,-15.67,0,*64
1516201347.57,12236,9.25,71194.8,-13.43,-15.81,-15.67,0,*69
1516201348.84,12237,9.25,71192.0,-13.45,-15.89,-15.63,0,*62
1516201350.09,12238,9.25,71194.5,-13.43,-15.89,-15.53,0,*68
1516201351.36,12239,9.25,71196.5,-13.45,-15.89,-15.53,0,*6F
1516201352.6,12240,9.31,71202.8,-13.43,-15.89,-15.53,0,*67
1516201353.88,12241,9.25,71200.0,-13.45,-15.89,-15.49,0,*6B
1516201355.15,12242,9.31,71202.8,-13.43,-15.89,-15.39,0,*69
1516201356.4,12243,9.25,71182.5,-13.45,-15.75,-15.49,0,*6A
1516201357.65,12244,9.31,71188.0,-13.43,-15.75,-15.39,0,*6C
1516201358.92,12245,9.25,71192.3,-13.45,-15.63,-15.35,0,*60
1516201360.16,12246,9.31,71196.0,-13.43,-15.53,-15.35,0,*66
1516201361.43,12247,9.31,71190.0,-13.45,-15.53,-15.35,0,*61
1516201362.65,12248,9.25,71186.5,-13.43,-15.53,-15.29,0,*65
1516201363.87,12249,9.31,71194.8,-13.43,-15.49,-15.29,0,*6F
1516201365.11,12250,9.31,71198.3,-13.43,-15.49,-15.21,0,*6F
1516201366.38,12251,9.25,71188.8,-13.45,-15.49,-15.21,0,*68
1516201367.65,12252,9.31,71178.0,-13.45,-15.39,-15.29,0,*64
1516201368.92,12253,9.25,71178.3,-13.45,-15.39,-15.29,0,*65
1516201370.19,12254,9.25,71172.3,-13.45,-15.29,-15.21,0,*6B
1516201371.48,12255,9.31,71178.5,-13.45,-15.35,-15.21,0,*67
1516201372.75,12256,9.31,71186.3,-13.45,-15.29,-15.21,0,*69
1516201374.02,12257,9.25,71182.8,-13.45,-15.29,-15.21,0,*68
1516201375.26,12258,9.31,71182.5,-13.47,-15.29,-15.21,0,*65
1516201376.53,12259,9.25,71176.8,-13.49,-15.35,-15.25,0,*63
1516201377.75,12260,9.25,71184.5,-13.47,-15.29,-15.15,0,*69
1516201378.99,12261,9.25,71184.0,-13.47,-15.21,-15.15,0,*60
1516201380.22,12262,9.25,71178.5,-13.47,-15.21,-15.15,0,*63
1516201381.46,12263,9.25,71182.5,-13.47,-15.21,-15.15,0,*62
1516201382.68,12264,9.25,71180.0,-13.47,-15.15,-15.07,0,*61
1516201383.94,12265,9.25,71180.5,-13.49,-15.21,-15.11,0,*6E
1516201385.17,12266,9.31,71176.0,-13.47,-15.07,-14.93,0,*6C
1516201386.44,12267,9.31,71180.5,-13.49,-15.11,-14.97,0,*60
1516201387.7,12268,9.31,71186.3,-13.49,-15.21,-15.07,0,*64
1516201388.96,12269,9.31,71182.5,-13.49,-15.21,-15.11,0,*62
1516201390.19,12270,9.31,71186.8,-13.47,-15.07,-15.01,0,*61
1516201391.41,12271,9.25,71172.5,-13.47,-15.15,-15.07,0,*65
1516201392.63,12272,9.25,71176.5,-13.47,-15.15,-15.15,0,*65
1516201393.92,12273,9.25,71182.8,-13.49,-15.21,-15.21,0,*6A
1516201395.13,12274,9.25,71186.5,-13.47,-15.07,-15.15,0,*60
1516201396.37,12275,9.31,71194.8,-13.47,-15.21,-15.11,0,*61
1516201397.6,12276,9.25,71188.8,-13.49,-15.11,-15.11,0,*6F
1516201398.89,12277,9.25,71182.0,-13.49,-15.21,-15.21,0,*6E
1516201400.12,12278,9.25,71182.0,-13.47,-15.01,-15.07,0,*69
1516201401.38,12279,9.25,71184.0,-13.47,-15.01,-14.93,0,*64
1516201402.61,12280,9.25,71184.5,-13.47,-15.01,-15.07,0,*6E
1516201403.87,12281,9.25,71188.0,-13.47,-15.21,-14.97,0,*65
1516201405.16,12282,9.25,71194.5,-13.49,-14.97,-14.97,0,*64
1516201406.45,12283,9.25,71190.3,-13.49,-14.97,-14.97,0,*65
1516201407.68,12284,9.25,71190.0,-13.47,-14.97,-14.89,0,*63
1516201408.92,12285,9.31,71188.0,-13.47,-15.01,-14.89,0,*6C
1516201410.19,12286,9.25,71182.8,-13.49,-15.07,-14.97,0,*68
1516201411.43,12287,9.25,71190.0,-13.47,-14.93,-14.89,0,*64
1516201412.71,12288,9.31,71194.8,-13.49,-14.93,-14.93,0,*6E
1516201414.0,12289,9.31,71188.5,-13.49,-14.97,-14.93,0,*6B
1516201415.26,12290,9.31,71188.3,-13.49,-15.07,-14.93,0,*6B
1516201416.53,12291,9.25,71196.5,-13.47,-14.79,-14.79,0,*68
1516201417.77,12292,9.31,71196.8,-13.47,-14.89,-14.83,0,*61
1516201419.06,12293,9.25,71188.8,-13.49,-14.93,-14.93,0,*64
1516201420.32,12294,9.25,71182.5,-13.47,-14.93,-14.93,0,*6D
1516201421.58,12295,9.31,71186.3,-13.49,-15.07,-14.93,0,*6E
1516201422.84,12296,9.31,71190.0,-13.49,-14.97,-15.07,0,*69
1516201424.1,12297,9.25,71184.5,-13.47,-15.01,-14.93,0,*64
1516201425.38,12298,9.25,71192.0,-13.49,-14.93,-14.93,0,*6F
1516201426.67,12299,9.25,71190.5,-13.49,-14.93,-14.83,0,*6F
1516201427.91,12300,9.31,71194.3,-13.47,-14.89,-14.79,0,*6E
1516201429.2,12301,9.25,71190.8,-13.49,-14.93,-14.93,0,*6E
1516201430.5,12302,9.31,71192.0,-13.49,-14.83,-14.83,0,*6D
1516201431.79,12303,9.31,71184.5,-13.49,-14.79,-14.79,0,*6C
1516201433.08,12304,9.31,71186.3,-13.49,-14.79,-14.83,0,*6E
1516201434.37,12305,9.25,71194.3,-13.49,-14.93,-14.83,0,*6B
1516201435.64,12306,9.31,71188.3,-13.49,-14.83,-14.69,0,*6D
1516201436.93,12307,9.25,71186.0,-13.49,-14.79,-14.79,0,*68
1516201438.22,12308,9.25,71186.5,-13.49,-14.79,-14.79,0,*67
1516201439.51,12309,9.25,71184.3,-13.49,-14.83,-14.79,0,*63
1516201440.74,12310,9.25,71186.5,-13.49,-14.69,-14.69,0,*6E
1516201441.98,12311,9.31,71194.5,-13.49,-14.69,-14.69,0,*6F
1516201443.19,12312,9.25,71188.8,-13.47,-14.65,-14.61,0,*66
1516201444.43,12313,9.31,71192.0,-13.49,-14.65,-14.65,0,*6D
1516201445.72,12314,9.25,71190.0,-13.49,-14.55,-14.51,0,*6E
1516201447.0,12315,9.31,71186.3,-13.47,-14.51,-14.51,0,*65
1516201448.24,12316,9.25,71180.5,-13.47,-14.51,-14.61,0,*65
1516201449.52,12317,9.31,71186.5,-13.47,-14.55,-14.47,0,*64
1516201450.79,12318,9.31,71188.8,-13.47,-14.51,-14.51,0,*68
1516201452.04,12319,9.25,71188.8,-13.47,-14.51,-14.61,0,*6A
1516201453.31,12320,9.25,71188.3,-13.47,-14.47,-14.51,0,*64
1516201454.59,12321,9.25,71186.8,-13.47,-14.51,-14.47,0,*65
1516201455.84,12322,9.31,71192.3,-13.47,-14.51,-14.61,0,*62
1516201457.11,12323,9.31,71194.3,-13.47,-14.51,-14.51,0,*60
1516201458.35,12324,9.31,71192.0,-13.47,-14.61,-14.75,0,*62
1516201459.59,12325,9.25,71192.8,-13.45,-14.61,-14.65,0,*60
1516201460.86,12326,9.31,71194.8,-13.45,-14.61,-14.51,0,*64
1516201462.13,12327,9.31,71192.3,-13.43,-14.47,-14.47,0,*60
1516201463.43,12328,9.25,71192.3,-13.45,-14.51,-14.51,0,*69
1516201464.73,12329,9.31,71194.0,-13.45,-14.47,-14.51,0,*6F
1516201466.04,12330,9.25,71188.8,-13.45,-14.47,-14.47,0,*60
1516201467.31,12331,9.25,71194.5,-13.43,-14.51,-14.51,0,*67
1516201468.61,12332,9.25,71198.0,-13.45,-14.51,-14.51,0,*62
1516201469.87,12333,9.31,71202.5,-13.45,-14.61,-14.47,0,*67
1516201471.17,12334,9.25,71200.8,-13.45,-14.51,-14.51,0,*64
1516201472.41,12335,9.25,71200.8,-13.45,-14.61,-14.61,0,*65
1516201473.69,12336,9.25,71198.8,-13.43,-14.51,-14.47,0,*67
1516201474.96,12337,9.25,71198.5,-13.43,-14.51,-14.47,0,*66
1516201476.26,12338,9.31,71202.0,-13.45,-14.51,-14.51,0,*68
1516201477.5,12339,9.25,71198.3,-13.45,-14.65,-14.65,0,*69
1516201478.76,12340,9.25,71194.3,-13.45,-14.75,-14.65,0,*66
1516201480.03,12341,9.31,71194.8,-13.43,-14.79,-14.79,0,*60
1516201481.29,12342,9.25,71188.5,-13.43,-14.79,-14.79,0,*63
1516201482.53,12343,9.25,71188.5,-13.43,-14.89,-14.79,0,*6D
1516201483.79,12344,9.25,71184.8,-13.45,-14.65,-14.75,0,*62
1516201485.08,12345,9.25,71186.3,-13.45,-14.79,-14.75,0,*6E
1516201486.34,12346,9.25,71184.8,-13.43,-14.75,-14.75,0,*67
1516201487.58,12347,9.25,71180.8,-13.43,-14.79,-14.89,0,*69
1516201488.84,12348,9.31,71184.8,-13.43,-14.75,-14.75,0,*69
1516201490.09,12349,9.31,71184.0,-13.45,-14.89,-14.89,0,*6E
1516201491.35,12350,9.25,71188.3,-13.43,-14.93,-14.93,0,*60
1516201492.63,12351,9.25,71180.8,-13.45,-14.93,-15.01,0,*6D
1516201493.86,12352,9.25,71172.8,-13.43,-15.01,-14.89,0,*63
1516201495.1,12353,9.25,71172.8,-13.45,-15.07,-15.07,0,*65
1516201496.36,12354,9.25,71178.5,-13.43,-14.93,-15.01,0,*6E
1516201497.6,12355,9.25,71184.8,-13.43,-14.89,-14.79,0,*6A
1516201498.82,12356,9.25,71184.0,-13.47,-14.89,-14.89,0,*62
1516201500.09,12357,9.25,71176.3,-13.45,-14.93,-14.89,0,*6A
1516201501.37,12358,9.25,71174.0,-13.45,-15.01,-14.93,0,*64
1516201502.61,12359,9.25,71160.8,-13.45,-14.89,-14.89,0,*6F
1516201503.88,12360,9.25,71164.5,-13.45,-14.89,-14.79,0,*6A
1516201505.14,12361,9.25,71168.8,-13.45,-14.93,-14.89,0,*6F
1516201506.41,12362,9.25,71178.0,-13.45,-14.89,-14.93,0,*6C
1516201507.65,12363,9.31,71178.8,-13.45,-14.89,-14.89,0,*66
1516201508.92,12364,9.25,71176.8,-13.47,-14.79,-14.79,0,*63
1516201510.16,12365,9.25,71184.5,-13.47,-14.89,-14.79,0,*6D
1516201511.4,12366,9.25,71186.5,-13.47,-14.75,-14.65,0,*60
1516201512.64,12367,9.31,71182.8,-13.47,-14.75,-14.65,0,*61
1516201513.88,12368,9.31,71186.8,-13.47,-14.61,-14.75,0,*6A
1516201515.14,12369,9.31,71194.8,-13.49,-14.79,-14.69,0,*61
1516201516.39,12370,9.25,71190.3,-13.47,-14.75,-14.65,0,*67
1516201517.6,12371,9.25,71188.8,-13.47,-14.65,-14.65,0,*67
1516201518.82,12372,9.25,71190.5,-13.47,-14.65,-14.65,0,*64
1516201520.03,12373,9.25,71188.0,-13.47,-14.65,-14.65,0,*65
1516201521.3,12374,9.25,71194.0,-13.45,-14.75,-14.65,0,*61
1516201522.52,12375,9.25,71184.8,-13.47,-14.65,-14.65,0,*63
1516201523.76,12376,9.25,71182.5,-13.45,-14.65,-14.65,0,*62
1516201525.02,12377,9.25,71174.5,-13.45,-14.75,-14.65,0,*62
1516201526.27,12378,9.31,71178.8,-13.45,-14.61,-14.65,0,*68
1516201527.51,12379,9.25,71184.8,-13.43,-14.61,-14.51,0,*68
1516201528.75,12380,9.31,71188.5,-13.45,-14.61,-14.61,0,*6B
1516201530.02,12381,9.31,71194.3,-13.45,-14.51,-14.61,0,*69
1516201531.29,12382,9.25,71188.8,-13.45,-14.51,-14.61,0,*6A
1516201532.53,12383,9.31,71192.3,-13.45,-14.65,-14.61,0,*6C
1516201533.77,12384,9.25,71190.8,-13.45,-14.61,-14.61,0,*6F
1516201535.06,12385,9.31,71188.8,-13.45,-14.51,-14.51,0,*6E
1516201536.33,12386,9.25,71180.3,-13.45,-14.61,-14.51,0,*6E
1516201537.6,12387,9.31,71190.0,-13.45,-14.51,-14.37,0,*6C
1516201538.87,12388,9.31,71188.5,-13.43,-14.51,-14.51,0,*65
1516201540.17,12389,9.31,71194.0,-13.45,-14.51,-14.51,0,*62
1516201541.41,12390,9.25,71192.8,-13.43,-14.61,-14.51,0,*6F
1516201542.65,12391,9.25,71192.5,-13.43,-14.51,-14.61,0,*6E
1516201543.89,12392,9.31,71200.0,-13.45,-14.61,-14.61,0,*68
1516201545.11,12393,9.25,71196.0,-13.43,-14.61,-14.65,0,*6B
1516201546.34,12394,9.25,71194.3,-13.43,-14.65,-14.75,0,*69
1516201547.6,12395,9.31,71186.5,-13.45,-14.65,-14.79,0,*62
1516201548.84,12396,9.31,71186.3,-13.43,-14.65,-14.75,0,*6B
1516201550.05,12397,9.25,71184.3,-13.43,-14.65,-14.61,0,*6F
1516201551.31,12398,9.25,71194.5,-13.45,-14.65,-14.51,0,*65
1516201552.53,12399,9.31,71194.0,-13.43,-14.61,-14.65,0,*61
1516201553.74,12400,9.25,71194.3,-13.43,-14.61,-14.61,0,*62
1516201554.96,12401,9.25,71196.0,-13.43,-14.61,-14.65,0,*67
1516201556.21,12402,9.31,71200.5,-13.43,-14.51,-14.65,0,*67
1516201557.47,12403,9.25,71202.8,-13.45,-14.65,-14.75,0,*66
1516201558.73,12404,9.25,71204.3,-13.45,-14.65,-14.79,0,*6D
1516201559.97,12405,9.31,71206.3,-13.43,-14.75,-14.89,0,*64
1516201561.23,12406,9.31,71202.5,-13.43,-14.75,-14.79,0,*68
1516201562.49,12407,9.25,71198.8,-13.41,-14.69,-14.75,0,*6A
1516201563.76,12408,9.31,71202.8,-13.41,-14.89,-15.01,0,*69
1516201565.01,12409,9.31,71202.5,-13.41,-14.89,-15.11,0,*69
1516201566.27,12410,9.25,71198.8,-13.41,-14.97,-15.11,0,*6E
1516201567.53,12411,9.25,71200.0,-13.45,-15.15,-15.21,0,*63
1516201568.76,12412,9.31,71202.8,-13.43,-15.29,-15.29,0,*61
1516201570.01,12413,9.25,71196.8,-13.41,-15.29,-15.29,0,*62
1516201571.29,12414,9.25,71192.8,-13.41,-15.43,-15.29,0,*69
1516201572.54,12415,9.31,71192.3,-13.43,-15.63,-15.39,0,*69
1516201573.78,12416,9.25,71192.3,-13.43,-15.49,-15.35,0,*6E
1516201575.04,12417,9.25,71178.5,-13.43,-15.39,-15.35,0,*68
1516201576.3,12418,9.25,71176.3,-13.43,-15.39,-15.21,0,*62
1516201577.57,12419,9.25,71180.8,-13.43,-15.39,-15.21,0,*63
1516201578.81,12420,9.25,71188.3,-13.43,-15.63,-15.21,0,*66
1516201580.04,12421,9.25,71198.0,-13.43,-15.75,-15.29,0,*68
1516201581.28,12422,9.25,71198.5,-13.43,-15.75,-15.35,0,*66
1516201582.5,12423,9.25,71202.3,-13.43,-15.63,-15.29,0,*6D
1516201583.79,12424,9.31,71194.0,-13.41,-15.57,-15.35,0,*62
1516201585.01,12425,9.25,71182.0,-13.43,-15.67,-15.49,0,*69
1516201586.25,12426,9.25,71186.0,-13.43,-15.63,-15.35,0,*65
1516201587.53,12427,9.25,71182.8,-13.45,-15.63,-15.39,0,*6E
1516201588.77,12428,9.25,71172.8,-13.43,-15.63,-15.35,0,*6B
1516201590.03,12429,9.25,71170.8,-13.45,-15.49,-15.21,0,*61
1516201591.3,12430,9.25,71182.5,-13.45,-15.35,-15.15,0,*65
1516201592.56,12431,9.25,71182.0,-13.45,-15.35,-15.15,0,*64
1516201593.82,12432,9.31,71186.3,-13.45,-15.21,-15.15,0,*62
1516201595.06,12433,9.31,71176.5,-13.43,-15.21,-15.15,0,*65
1516201596.28,12434,9.31,71182.8,-13.47,-15.15,-15.07,0,*62
1516201597.49,12435,9.25,71186.5,-13.47,-15.15,-15.07,0,*63
1516201598.71,12436,9.25,71184.3,-13.47,-15.07,-15.07,0,*63
1516201599.95,12437,9.25,71180.5,-13.47,-15.15,-15.01,0,*67
1516201601.21,12438,9.31,71184.3,-13.47,-15.01,-15.01,0,*6D
1516201602.45,12439,9.25,71186.5,-13.47,-15.07,-14.93,0,*60
1516201603.69,12440,9.25,71188.0,-13.47,-15.15,-15.01,0,*67
1516201604.93,12441,9.25,71186.8,-13.47,-15.15,-15.21,0,*64
1516201606.18,12442,9.25,71186.8,-13.49,-15.25,-15.25,0,*6E
1516201607.42,12443,9.25,71186.0,-13.49,-15.25,-15.11,0,*68
1516201608.68,12444,9.25,71166.3,-13.49,-14.97,-15.07,0,*60
1516201609.95,12445,9.25,71172.0,-13.49,-15.07,-14.97,0,*61
1516201611.25,12446,9.25,71178.0,-13.49,-14.83,-14.83,0,*6A
1516201612.54,12447,9.31,71188.3,-13.49,-14.83,-14.79,0,*6E
1516201613.81,12448,9.25,71190.5,-13.47,-14.79,-14.75,0,*66
1516201615.1,12449,9.25,71190.8,-13.49,-14.79,-14.83,0,*60
1516201616.34,12450,9.25,71190.8,-13.47,-14.89,-14.75,0,*60
1516201617.56,12451,9.25,71188.0,-13.47,-14.89,-14.89,0,*62
1516201618.8,12452,9.25,71196.0,-13.47,-14.93,-14.89,0,*6A
1516201620.06,12453,9.25,71188.8,-13.47,-15.01,-14.79,0,*6E
1516201621.3,12454,9.31,71180.5,-13.47,-14.89,-14.79,0,*68
1516201622.59,12455,9.25,71182.8,-13.45,-14.79,-14.79,0,*64
1516201623.88,12456,9.25,71186.8,-13.45,-14.79,-14.75,0,*6B
1516201625.18,12457,9.25,71186.0,-13.49,-14.83,-14.83,0,*6A
1516201626.47,12458,9.25,71182.8,-13.45,-14.79,-14.79,0,*69
1516201627.73,12459,9.25,71182.5,-13.47,-14.75,-14.75,0,*6A
1516201628.99,12460,9.25,71180.5,-13.47,-14.75,-14.75,0,*60
1516201630.23,12461,9.25,71184.3,-13.45,-14.65,-14.65,0,*63
1516201631.49,12462,9.25,71188.3,-13.47,-14.75,-14.75,0,*62
1516201632.76,12463,9.31,71190.3,-13.47,-14.75,-14.75,0,*63
1516201634.0,12464,9.25,71180.0,-13.47,-14.79,-14.65,0,*69
1516201635.29,12465,9.25,71176.0,-13.45,-14.79,-14.75,0,*6B
1516201636.53,12466,9.31,71164.8,-13.45,-14.65,-14.65,0,*64
1516201637.79,12467,9.31,71164.3,-13.45,-14.75,-14.65,0,*64
1516201639.08,12468,9.25,71160.0,-13.45,-14.75,-14.75,0,*6A
1516201640.34,12469,9.25,71164.5,-13.47,-14.79,-14.75,0,*65
1516201641.61,12470,9.25,71182.0,-13.47,-14.79,-14.75,0,*6D
1516201642.83,12471,9.25,71174.8,-13.47,-14.89,-14.89,0,*60
1516201644.11,12472,9.25,71186.8,-13.49,-14.97,-14.97,0,*6D
1516201645.35,12473,9.25,71182.3,-13.47,-14.89,-14.79,0,*6D
1516201646.64,12474,9.31,71182.0,-13.49,-14.97,-14.93,0,*6F
1516201647.9,12475,9.31,71182.0,-13.47,-14.93,-15.01,0,*6E
1516201649.14,12476,9.25,71168.3,-13.47,-15.01,-14.89,0,*66
1516201650.4,12477,9.25,71166.5,-13.47,-14.93,-14.93,0,*66
1516201651.64,12478,9.25,71168.3,-13.47,-14.79,-14.89,0,*66
1516201652.91,12479,9.25,71172.3,-13.47,-14.79,-14.79,0,*68
1516201654.15,12480,9.25,71174.8,-13.47,-14.89,-14.79,0,*61
1516201655.38,12481,9.25,71174.3,-13.49,-14.69,-14.69,0,*61
1516201656.67,12482,9.25,71170.5,-13.45,-14.79,-14.79,0,*6E
1516201657.94,12483,9.25,71170.3,-13.47,-14.79,-14.79,0,*6D
1516201659.15,12484,9.25,71168.0,-13.47,-14.65,-14.65,0,*6A
1516201660.37,12485,9.25,71172.0,-13.47,-14.65,-14.61,0,*6F
1516201661.66,12486,9.25,71170.5,-13.49,-14.79,-14.55,0,*68
1516201662.9,12487,9.25,71168.8,-13.47,-14.75,-14.65,0,*68
1516201664.14,12488,9.25,71168.5,-13.47,-14.75,-14.65,0,*67
1516201665.38,12489,9.25,71178.5,-13.49,-14.65,-14.69,0,*65
1516201666.64,12490,9.25,71176.8,-13.45,-14.65,-14.75,0,*6C
1516201667.87,12491,9.25,71174.8,-13.45,-14.65,-14.61,0,*68
1516201669.16,12492,9.25,71174.0,-13.45,-14.75,-14.75,0,*6F
1516201670.43,12493,9.25,71176.3,-13.45,-14.75,-14.65,0,*6F
1516201671.67,12494,9.25,71176.3,-13.47,-14.75,-14.65,0,*6A
1516201672.89,12495,9.25,71174.0,-13.47,-14.61,-14.65,0,*6E
1516201674.11,12496,9.25,71176.5,-13.47,-14.61,-14.65,0,*6D
1516201675.32,12497,9.25,71178.5,-13.47,-14.61,-14.61,0,*68
1516201676.53,12498,9.25,71176.8,-13.47,-14.65,-14.61,0,*63
1516201677.77,12499,9.25,71178.5,-13.45,-14.65,-14.61,0,*60
1516201679.04,12500,9.25,71184.8,-13.45,-14.75,-14.65,0,*64
1516201680.3,12501,9.25,71180.0,-13.45,-14.89,-14.79,0,*6B
1516201681.57,12502,9.25,71180.5,-13.45,-14.89,-14.93,0,*6C
1516201682.83,12503,9.25,71170.0,-13.45,-14.93,-14.89,0,*6D
1516201684.1,12504,9.25,71178.0,-13.43,-14.79,-14.79,0,*67
1516201685.34,12505,9.25,71180.3,-13.45,-14.89,-14.89,0,*60
1516201686.63,12506,9.25,71174.5,-13.45,-14.93,-15.01,0,*69
1516201687.91,12507,9.25,71168.3,-13.45,-14.93,-14.93,0,*62
1516201689.16,12508,9.25,71170.5,-13.45,-14.89,-14.89,0,*6D
1516201690.45,12509,9.25,71174.5,-13.45,-14.79,-14.79,0,*6C
1516201691.69,12510,9.25,71170.8,-13.45,-14.89,-14.89,0,*64
1516201692.97,12511,9.25,71176.8,-13.45,-15.01,-14.93,0,*6F
1516201694.22,12512,9.25,71178.5,-13.45,-15.15,-15.15,0,*66
1516201695.48,12513,9.25,71182.0,-13.45,-15.21,-15.29,0,*6F
1516201696.75,12514,9.25,71180.8,-13.45,-15.21,-15.29,0,*68
1516201698.02,12515,9.31,71184.8,-13.47,-15.35,-15.35,0,*63
1516201699.27,12516,9.31,71182.0,-13.47,-15.35,-15.29,0,*6D
1516201700.53,12517,9.31,71180.5,-13.47,-15.39,-15.35,0,*6D
1516201701.81,12518,9.25,71178.3,-13.47,-15.43,-15.43,0,*6E
1516201703.07,12519,9.25,71162.3,-13.47,-15.35,-15.35,0,*6F